This is the latest recevied weather packets stored in our database for station/object OE6ACM-14. If no packets are shown the sender has not sent any weather packets the latest 10 day(s).
| Time | Temp. | Humidity | Pressure | Rain* | Wind** | Luminosity | Snow |
|---|---|---|---|---|---|---|---|
| 1777482165 | 13.33° C | 35% | 930.7 hPa | - | - | - | - |
| 1777481865 | 13.89° C | 34% | 930.6 hPa | - | - | - | - |
| 1777481565 | 15.56° C | 34% | 930.5 hPa | - | - | - | - |
| 1777481265 | 16.67° C | 37% | 930.5 hPa | - | - | - | - |
| 1777480965 | 15.56° C | 39% | 930.5 hPa | - | - | - | - |
| 1777480665 | 16.11° C | 40% | 930.4 hPa | - | - | - | - |
| 1777480365 | 16.67° C | 39% | 930.4 hPa | - | - | - | - |
| 1777480065 | 17.22° C | 41% | 930.3 hPa | - | - | - | - |
| 1777479765 | 16.11° C | 42% | 930.2 hPa | - | - | - | - |
| 1777479465 | 15.56° C | 41% | 930.3 hPa | - | - | - | - |
| 1777479165 | 16.67° C | 40% | 930.1 hPa | - | - | - | - |
| 1777478865 | 16.67° C | 40% | 930.1 hPa | - | - | - | - |
| 1777478565 | 17.22° C | 42% | 930.1 hPa | - | - | - | - |
| 1777478265 | 16.67° C | 41% | 930.1 hPa | - | - | - | - |
| 1777477965 | 18.89° C | 38% | 930 hPa | - | - | - | - |
| 1777477665 | 18.89° C | 39% | 930 hPa | - | - | - | - |
| 1777477365 | 19.44° C | 37% | 930 hPa | - | - | - | - |
| 1777477065 | 20° C | 35% | 930 hPa | - | - | - | - |
| 1777476765 | 20° C | 36% | 930 hPa | - | - | - | - |
| 1777476465 | 20° C | 36% | 930 hPa | - | - | - | - |
| 1777476165 | 19.44° C | 38% | 930.1 hPa | - | - | - | - |
| 1777475865 | 19.44° C | 38% | 930.1 hPa | - | - | - | - |
| 1777475565 | 19.44° C | 38% | 930.2 hPa | - | - | - | - |
| 1777475265 | 18.89° C | 38% | 930.2 hPa | - | - | - | - |
| 1777474965 | 17.78° C | 41% | 930.2 hPa | - | - | - | - |
* Rain since midnight (hover to see other rain measurements)
** Current wind speed in m/s (hover to see current wind gust speed)